Location: Klein Ammensleben
(52.2180°N, 11.5203°E)
Time: 11:48:46
(UTC+00:00)

Daily predictions for brighter satellites

Satellite Brightness Start Highest point End
(mag) Time Altitude Azimuth Time Altitude Azimuth Time Altitude Azimuth
FALCON 9 DEB 3.5 19:16:07 10° SW 19:19:29 45° SSE 19:22:51 10° E
Genesis I 4.0 19:19:03 10° NW 19:22:48 46° SW 19:26:31 10° SSE
Cosmos 44 4.1 19:18:15 10° NW 19:22:50 41° NE 19:27:38 10° ESE
USA 186 3.9 19:22:13 10° SW 19:23:50 17° W 19:25:27 10° NW
Cosmos 1980 Rocket 2.4 19:18:36 10° NNW 19:24:19 80° WSW 19:29:58 10° SSE
OBJECT-B 1.1 19:22:28 10° S 19:25:44 72° WSW 19:29:03 10° NNW
CZ-2C R/B 3.8 19:23:04 10° NNE 19:27:37 56° ESE 19:32:03 10° S
Intercosmos 25 3.8 19:24:49 10° NNW 19:28:59 60° W 19:32:11 10° S
Cosmos 614 Rocket 4.3 19:26:39 10° SSW 19:31:49 73° WNW 19:37:04 10° NNE
Cosmos 1470 Rocket 4.2 19:30:09 10° SSE 19:34:09 35° E 19:38:09 10° NNE
Meteor 1-4 Rocket 2.6 19:33:18 10° NNW 19:36:47 75° W 19:40:13 10° S
Cosmos 1697 Rocket 3.9 19:32:15 10° NW 19:37:25 39° WSW 19:42:35 10° S
Cosmos 1833 Rocket 2.9 19:32:16 10° SSW 19:37:54 82° WNW 19:43:35 10° NNE
NOSS 3-2 (A) 3.7 19:32:38 10° SSW 19:38:03 44° ESE 19:44:12 10° NE
Meteor 2-20 Rocket 4.5 19:32:05 10° N 19:38:17 75° ENE 19:44:26 10° SSE
Cosmos 1184 Rocket 3.1 19:35:31 10° S 19:38:41 44° E 19:41:51 10° NNE
USA 267 4.0 19:33:18 10° ENE 19:38:50 29° SE 19:44:21 10° S
Sich 1 3.4 19:36:03 10° SSW 19:40:28 71° WNW 19:44:56 10° N
SPOT 5 3.9 19:40:40 11° ESE 19:44:09 27° ENE 19:47:51 10° N
Cosmos 540 Rocket 4.4 19:40:51 10° NNW 19:45:36 34° NE 19:49:56 12° ESE
Cosmos 1862 Rocket 3.6 19:41:15 10° N 19:45:46 84° E 19:50:11 10° SSE
Cosmos 405 Rocket 3.5 19:42:35 10° SSE 19:45:50 30° E 19:49:09 10° NNE
Cosmos 1437 Rocket 3.6 19:43:40 10° N 19:47:09 32° ENE 19:49:58 14° SE
SL-27 R/B 4.2 19:46:33 13° ESE 19:47:13 13° E 19:48:53 10° ENE
NOSS 3-2 (C) 4.0 19:42:25 10° S 19:47:31 33° ESE 19:53:13 10° NE
SPOT 1/Viking Rocket 3.9 19:45:04 11° SE 19:50:00 53° ENE 19:55:06 10° N
Cosmos 1934 Rocket 4.0 19:45:27 10° S 19:51:49 80° E 19:58:12 10° NNE
Cosmos 2333 Rocket 4.0 19:47:32 10° NNW 19:52:00 22° NNE 19:56:27 10° E
ERBS 3.8 19:49:34 10° WNW 19:52:39 34° N 19:55:44 10° ENE
Landsat 7 3.9 19:48:45 10° SSE 19:53:24 64° ENE 19:58:08 10° N
Resurs 01 Rocket 2.0 19:49:07 10° S 19:53:31 67° WSW 19:57:58 10° NNW
Cosmos 1515 4.5 19:50:49 10° N 19:54:24 36° ENE 19:57:05 15° SE
USA 32 4.1 19:49:32 10° S 19:54:40 60° E 19:59:49 10° NNE
Cosmos 676 Rocket 4.0 19:54:24 10° SSW 19:59:44 77° ESE 20:05:06 10° NNE
GP-B 3.1 19:55:31 10° N 19:59:59 71° E 20:04:25 10° S
ERS-1 Rocket 3.5 19:56:12 14° SE 20:00:16 44° ENE 20:05:02 10° N
Okean 1 3.4 19:58:49 10° N 20:02:52 62° ENE 20:06:08 15° SSE
Cosmos 841 Rocket 4.0 19:58:28 10° NNW 20:03:31 46° ENE 20:07:29 16° SE
Meteor 1-19 Rocket 4.2 19:58:16 10° N 20:03:39 63° ENE 20:08:21 14° SSE
OPS 6432 4.4 20:03:11 10° SW 20:07:03 82° NW 20:10:09 10° NE
CARTOSAT-1 4.0 20:06:55 17° SE 20:10:00 48° ENE 20:14:11 10° N
Cosmos 468 Rocket 4.1 20:05:42 10° NNW 20:11:03 85° WSW 20:15:29 15° SSE
BREEZE-M DEB (TANK) 2.1 20:08:48 10° W 20:11:13 39° S 20:11:50 29° SE
Cosmos 1867 3.6 20:07:39 10° SW 20:13:07 87° NW 20:18:37 10° NE
Cosmos 1933 Rocket 3.6 20:10:28 10° S 20:14:49 62° E 20:19:14 10° NNE
USA 234 3.3 20:10:46 14° ESE 20:16:39 89° NNE 20:23:13 10° WNW
SL-4 R/B 1.7 20:13:00 10° WSW 20:16:57 75° S 20:20:23 11° E
ATLAS 3B R/B 3.6 20:14:38 15° SSE 20:18:03 23° ESE 20:23:01 10° ENE
IGS 5A 3.6 20:15:47 13° S 20:19:24 76° WSW 20:23:35 10° NNW
Meteor 2-4 Rocket 3.9 20:14:54 10° N 20:20:29 55° ENE 20:24:18 19° SE
Cosmos 1869 Rocket 4.3 20:23:52 21° SE 20:26:08 35° E 20:30:13 10° NNE
Iridium 4 Rocket 4.1 20:25:27 21° ESE 20:27:07 27° E 20:30:39 10° NNE
Cosmos 1814 Rocket 4.3 20:22:04 10° NNW 20:27:13 57° ENE 20:30:35 21° SE
Meteor 1-14 Rocket 4.4 20:23:17 10° S 20:29:02 62° E 20:34:57 10° NNE
Cosmos 1954 Rocket 4.4 20:24:07 10° SW 20:29:26 68° WNW 20:34:46 10° NNE
CZ-2C R/B 4.4 20:25:08 10° N 20:29:44 33° WNW 20:34:22 10° SW
Spot 2 Rocket 3.8 20:25:34 13° S 20:30:11 67° WSW 20:35:17 10° NNW
SL-16 R/B 2.3 20:24:29 10° NNW 20:30:11 80° WSW 20:34:14 20° SSE
Cosmos 2219 Rocket 3.6 20:25:44 10° NNW 20:30:43 29° NE 20:35:05 12° E
CZ-4B DEB 4.3 20:30:11 26° SSE 20:31:55 80° ENE 20:35:16 10° NNW
Okean 1-7 2.9 20:28:53 10° N 20:33:15 84° E 20:35:59 22° SSE
Cosmos 1741 Rocket 4.0 20:28:57 10° S 20:34:06 60° ESE 20:39:20 10° NNE
Cosmos 1703 Rocket 3.5 20:29:58 10° NNW 20:34:20 86° W 20:37:16 20° S
ATLAS 5 CENTAUR R/B 1.9 20:34:19 10° NW 20:36:39 59° NE 20:39:33 20° ESE
USA 238 DEB 3.6 20:30:26 10° SW 20:37:07 86° SE 20:44:08 10° NE
USA 238 3.6 20:30:34 10° SW 20:37:14 85° SE 20:44:15 10° NE
Meteor 1-18 Rocket 4.5 20:33:49 10° NNW 20:39:22 67° W 20:44:01 15° S
Cosmos 1570 Rocket 4.0 20:34:00 10° NNW 20:39:22 83° ENE 20:42:42 24° SSE
Cosmos 2082 Rocket 3.2 20:36:42 10° SW 20:42:13 50° NW 20:47:47 10° NNE
Terra 1.9 20:40:06 25° SE 20:42:49 64° ENE 20:47:33 10° N
Lacrosse 5 2.7 20:38:15 10° WNW 20:42:56 38° SW 20:45:36 22° S
USA 276 3.0 20:43:57 10° W 20:46:51 33° SSW 20:47:07 32° S
Cosmos 1238 Rocket 3.3 20:44:11 11° SSW 20:46:55 41° WNW 20:49:50 10° N
CENTAUR R/B 2.5 20:41:36 10° SSW 20:47:36 69° SE 20:54:48 10° NE
Cosmos 2208 Rocket 4.0 20:42:51 10° NNW 20:48:10 82° ENE 20:51:06 27° SSE
Cosmos 1605 Rocket 4.3 20:42:18 10° SSW 20:48:22 65° WNW 20:54:27 10° N
Cosmos 1763 Rocket 4.1 20:43:34 10° NNW 20:48:43 51° WSW 20:52:27 18° S
Cosmos 2322 Rocket 2.3 20:43:15 10° NW 20:48:56 72° WSW 20:52:29 24° SSE
Cosmos 2100 Rocket 4.0 20:45:27 20° SSE 20:49:47 61° E 20:55:51 10° NNE
X-37B 2.7 20:48:57 10° WSW 20:50:24 16° SSW 20:50:24 16° SSW
FALCON 9 DEB 3.2 20:52:55 10° W 20:56:26 80° N 20:58:46 20° E
Cosmos 2237 4.2 20:51:05 10° NNW 20:56:51 86° ENE 20:59:59 28° SSE
Cosmos 2173 Rocket 4.0 20:52:59 21° S 20:57:08 64° E 21:03:10 10° NNE
Cosmos 1733 Rocket 4.2 20:57:31 25° ESE 20:58:17 26° E 21:01:58 10° NNE
Cosmos 2084 Rocket 3.3 20:55:18 10° SW 20:59:27 66° SE 21:03:46 10° NE
Cosmos 2360 Rocket 2.2 20:53:54 10° NNW 20:59:37 83° ENE 21:02:39 29° SE
Cosmos 1500 3.0 20:59:53 37° S 21:01:15 72° E 21:05:00 10° NNE
Cosmos 44 3.9 20:59:28 10° NW 21:04:12 49° SW 21:06:35 28° S
Cosmos 1725 Rocket 4.4 21:04:43 27° SE 21:07:42 46° E 21:13:42 10° NNE
SAR-Lupe-2 3.5 21:05:08 10° NNE 21:08:45 88° WNW 21:10:12 35° SSW
Cosmos 1356 4.0 21:10:48 38° E 21:10:48 38° E 21:13:55 10° NNE
Cosmos 1666 3.0 21:11:57 42° ESE 21:12:19 43° E 21:15:55 10° NNE
Cosmos 1459 Rocket 4.0 21:08:09 21° S 21:12:34 80° E 21:18:58 10° NNE
Cosmos 1242 Rocket 3.0 21:12:32 10° N 21:16:04 46° ENE 21:16:36 42° E
Cosmos 2016 Rocket 4.1 21:13:23 28° SSE 21:16:49 63° E 21:23:07 10° NNE
COSMOS 2428 3.3 21:13:15 10° NNW 21:18:50 48° NE 21:21:52 25° ESE
Cosmos 44 Rocket 3.9 21:14:49 10° NW 21:19:41 53° NE 21:22:15 27° ESE
Cosmos 2221 Rocket 3.5 21:15:26 10° N 21:19:56 87° ENE 21:21:32 40° SSE
Cosmos 2346 Rocket 4.4 21:14:02 10° N 21:20:08 83° E 21:23:12 31° SSE
SL-27 R/B 3.0 21:20:03 22° SW 21:21:54 52° WNW 21:25:10 10° NNE
SPOT 5 3.5 21:19:54 24° SSW 21:22:04 43° W 21:26:19 10° NNW
USA 267 3.1 21:16:00 10° ENE 21:22:35 75° SSE 21:29:07 10° SW
Cosmos 540 Rocket 4.2 21:22:25 10° NW 21:27:21 46° WSW 21:29:45 27° SSW
Cosmos 1378 3.9 21:24:24 10° N 21:27:54 36° ENE 21:28:16 35° E
Cosmos 1743 4.3 21:28:20 23° E 21:28:20 23° E 21:31:12 10° NE
Cosmos 2237 Rocket 3.7 21:23:40 10° NNW 21:28:36 29° NE 21:32:28 15° E
NOSS 3-2 (A) 4.2 21:22:52 10° WSW 21:28:45 58° NNW 21:35:37 10° NE
Lacrosse 4 Rocket 2.2 21:29:55 34° E 21:29:55 34° E 21:33:11 10° NE
ERBS 3.0 21:26:09 10° WNW 21:29:24 48° NNE 21:30:18 36° ENE
Cosmos 1378 Rocket 4.1 21:28:01 10° N 21:32:20 47° ENE 21:33:20 39° ESE
Cosmos 1271 Rocket 3.4 21:31:27 10° N 21:35:02 39° ENE 21:35:26 37° E
Cosmos 2333 Rocket 2.3 21:31:31 10° NNW 21:37:19 72° ENE 21:39:44 36° SE
NOSS 3-2 (C) 3.8 21:32:01 10° WSW 21:37:55 69° NW 21:44:50 10° NE
ERS-1 Rocket 4.3 21:36:13 18° SSW 21:39:12 32° W 21:43:42 10° NNW
Cosmos 2061 Rocket 3.9 21:37:27 29° S 21:40:48 87° E 21:47:02 10° N
Meteor 1-11 Rocket 3.7 21:42:34 33° S 21:45:17 87° E 21:51:08 10° NNE
Cosmos 1066 Rocket 4.1 21:39:59 10° NNW 21:45:43 89° WSW 21:47:48 41° S
Cosmos 2233 Rocket 4.2 21:45:59 37° SSE 21:48:21 59° E 21:54:34 10° NNE
Cosmos 1802 Rocket 4.2 21:45:24 23° SSW 21:49:32 72° WNW 21:55:53 10° N
Cosmos 1975 Rocket 4.3 21:48:18 10° N 21:52:15 29° ENE 21:53:12 27° E
COSMOS 2487 2.7 21:55:26 59° NE 21:55:26 59° NE 21:58:23 10° NNE
SL-4 R/B 1.9 21:52:43 10° W 21:55:57 60° WSW 21:55:57 60° WSW
Thor Agena Rocket 3.8 21:52:23 10° NNE 21:57:20 49° E 21:58:13 44° SE
USA 234 3.9 21:58:07 32° S 22:00:07 40° SW 22:06:13 10° WNW
Spot 4 3.8 22:03:39 54° SSE 22:04:46 88° WSW 22:09:39 10° NNW
Iridium 4 Rocket 4.3 22:05:13 24° WSW 22:07:01 33° WNW 22:10:50 10° NNW
ATLAS 3B R/B 2.5 22:01:44 12° SW 22:07:53 86° SE 22:14:36 10° NE
Cosmos 2227 Rocket 4.2 22:09:37 13° E 22:09:37 13° E 22:11:53 10° ENE
Cosmos 1536 3.4 22:12:10 44° WSW 22:12:58 52° WNW 22:16:53 10° N
SL-16 R/B 4.3 22:10:08 10° WNW 22:13:24 16° W 22:16:06 12° SW
Cosmos 2219 Rocket 2.2 22:09:31 10° NNW 22:15:13 74° WSW 22:16:46 49° S
Cosmos 1674 Rocket 3.9 22:13:14 10° NNW 22:17:29 54° W 22:18:08 49° SW
NOSS 0 Rocket 4.0 22:11:51 10° NNW 22:18:09 75° NE 22:20:35 39° SE
Terra 3.7 22:18:59 16° WSW 22:21:00 20° W 22:24:33 10° NW
Cosmos 2322 4.2 22:16:46 10° NW 22:22:12 48° WSW 22:23:35 40° SSW
Cosmos 1842 3.5 22:19:36 10° N 22:23:29 59° ENE 22:23:29 59° ENE
EO 1 Del DPAF 3.4 22:20:19 10° NNE 22:23:43 63° ENE 22:23:43 63° ENE
MOS 1-B Rocket 3.9 22:21:51 10° NNE 22:27:30 73° WNW 22:29:54 36° SW
Cosmos 1833 4.4 22:24:31 27° SW 22:27:39 71° NW 22:33:21 10° NNE
Cosmos 2344 4.4 22:19:18 10° NW 22:28:11 75° NE 22:39:29 13° SE
Cosmos 1503 Rocket 4.1 22:29:01 53° SE 22:29:48 59° ESE 22:35:06 10° NNE
Okean 2 3.2 22:27:31 10° N 22:31:40 82° E 22:31:45 81° ESE
Cosmos 2322 Rocket 4.4 22:29:13 10° WNW 22:31:59 14° W 22:34:18 11° WSW
Geosat 4.3 22:33:13 47° SW 22:33:58 51° WSW 22:38:54 10° NW
Meteor 2-11 Rocket 4.3 22:32:27 46° S 22:34:24 86° E 22:40:34 10° NNE
Cosmos 1486 Rocket 4.0 22:33:51 46° SW 22:35:24 80° WNW 22:40:39 10° NNE
ALOS 2 2.4 22:35:05 74° S 22:35:27 85° WSW 22:39:54 10° NNW
Cosmos 1733 Rocket 4.1 22:34:35 32° WSW 22:35:55 40° WNW 22:40:07 10° N
CENTAUR R/B 3.7 22:32:30 10° W 22:38:45 47° NNW 22:46:07 10° NE
SL-16 R/B 3.4 22:37:23 10° NNW 22:42:40 37° NE 22:46:19 18° ESE
Cosmos 2360 Rocket 3.9 22:38:55 10° NW 22:42:57 20° W 22:44:24 18° WSW
Cosmos 1975 2.9 22:43:45 67° ENE 22:43:45 67° ENE 22:47:33 10° NNE
Meteor 1-21 4.2 22:40:34 10° NNW 22:46:25 86° ENE 22:47:53 53° SSE
SL-24 DEB 4.1 22:48:37 10° N 22:53:26 83° E 22:53:57 70° SSE
Cosmos 773 Rocket 3.8 22:48:46 10° NNW 22:53:57 89° ENE 22:54:49 63° SSE
SL-16 R/B 4.4 22:53:52 10° E 22:58:36 23° NE 23:03:19 10° N
Cosmos 968 Rocket 3.8 22:58:02 40° WSW 22:59:42 61° WNW 23:04:49 10° NNE
Helios 1A 3.0 22:59:36 71° E 22:59:47 72° ENE 23:04:01 10° NNW
Cosmos 1782 Rocket 3.4 23:00:31 85° S 23:00:39 90° N 23:05:00 10° N
Cosmos 44 Rocket 4.2 22:56:34 10° NW 23:00:56 36° WSW 23:00:56 36° WSW
Cosmos 2297 Rocket 3.0 23:02:01 34° ESE 23:02:25 35° ESE 23:07:31 10° NE
COSMOS 2428 3.4 22:57:45 10° NW 23:03:02 39° WSW 23:03:51 37° SW
Cosmos 1743 3.8 23:03:24 36° W 23:03:42 37° WNW 23:07:22 10° N
Meteor 2-9 Rocket 4.1 23:03:15 56° S 23:04:34 85° ESE 23:10:23 10° NNE
Cosmos 1980 3.6 22:59:15 10° NNW 23:04:57 78° WSW 23:06:08 57° S
Cosmos 1538 Rocket 4.0 22:59:57 10° NNW 23:05:10 75° ENE 23:06:16 55° SE
USA 267 3.6 22:59:07 10° ENE 23:05:34 65° NNW 23:12:03 10° W
Lacrosse 4 Rocket 2.7 23:06:12 25° W 23:08:01 38° NW 23:11:56 10° NNE
Cosmos 1908 Rocket 4.2 23:07:34 43° W 23:08:10 46° WNW 23:12:23 10° N
Cosmos 1607 4.1 23:03:45 10° NW 23:10:13 75° NE 23:13:36 30° SE
In-Cosmos 22 4.4 23:05:50 10° N 23:11:22 62° ENE 23:12:48 46° SE
Cosmos 2237 Rocket 2.1 23:07:33 10° NNW 23:13:13 73° WSW 23:14:16 57° S
Cosmos 2219 3.5 23:13:12 45° SE 23:13:49 47° ESE 23:19:12 10° NE
Cosmos 2026 Rocket 4.5 23:12:44 10° N 23:18:41 50° ENE 23:21:06 33° SE
Cosmos 2333 Rocket 3.5 23:16:31 10° NW 23:21:04 25° WSW 23:21:43 24° WSW
Cosmos 1544 4.2 23:21:39 36° WNW 23:21:39 36° WNW 23:24:58 10° N
Cosmos 1437 4.4 23:21:30 10° NNW 23:23:14 32° NNW 23:23:14 32° NNW
Timation 2 Rocket 3.8 23:26:06 51° SSW 23:27:42 79° ESE 23:33:44 10° NE
Cosmos 1975 Rocket 3.9 23:26:03 10° NNW 23:30:13 38° W 23:30:20 38° W
Meteor 1-12 Rocket 4.4 23:28:45 50° SSE 23:30:16 71° E 23:36:18 10° NNE
Cosmos 1674 3.5 23:29:34 10° N 23:33:07 42° ENE 23:33:07 42° ENE
Cosmos 1300 Rocket 3.4 23:34:20 77° ESE 23:34:23 77° E 23:38:43 10° NNE
Cosmos 1634 Rocket 4.5 23:35:14 38° SE 23:37:11 50° E 23:43:09 10° NNE
Cosmos 1464 Rocket 4.2 23:39:31 40° SW 23:41:35 60° WNW 23:47:43 10° N
Helios 1B rocket 3.0 23:41:06 10° NNE 23:45:01 46° E 23:45:01 46° E
Cosmos 1680 Rocket 3.9 23:40:10 10° NNW 23:45:22 60° ENE 23:47:20 36° SE
Meteor 2-5 Rocket 4.3 23:40:37 10° N 23:46:07 51° ENE 23:48:23 32° SE
CZ-2D R/B 4.0 23:42:05 10° NE 23:46:09 21° E 23:48:16 17° ESE
Cosmos 1707 3.5 23:44:01 10° NNW 23:47:18 42° WNW 23:47:18 42° WNW
Nadezhda 4 Rocket 4.3 23:44:14 10° NNW 23:50:21 55° W 23:52:00 43° SW
Okean 2 Rocket 3.0 23:50:15 68° WSW 23:50:36 72° W 23:55:09 10° N
Meteor 1-29 4.4 23:48:20 10° NNE 23:50:57 29° ENE 23:50:57 29° ENE
Okean 1 Rocket 3.7 23:51:41 42° ESE 23:52:03 43° E 23:56:13 10° NNE
Cosmos 2227 Rocket 2.2 23:51:25 53° S 23:52:34 67° ESE 23:58:12 10° NE
Cosmos 1025 Rocket 3.3 23:49:14 10° NNW 23:53:18 52° W 23:53:18 52° W
Cosmos 1777 Rocket 3.9 23:52:43 57° SSW 23:53:50 85° WNW 23:59:10 10° NNE
SJ 16-02 2.3 23:55:08 34° ESE 23:55:19 34° ESE 23:59:18 10° NE
